PGT2286 LTFJ-LTBS

Flight info

Callsign PGT2286
Flight time 0h 48m
Altitude 30000
Route ROXUK UT409 NUMTI UT241 DEN/N0408F290 UW87 LAVTA W87 ATSAL
Aircraft A21N/M-SDE2E3FGHIRWXY/LB1

Departure

Time 2026-04-27 19:43
Airport Istanbul Sabiha Gökçen International Airport (LTFJ)

Arrival

Time 2026-04-27 20:31
Airport Dalaman International Airport (LTBS)
Time Latitude Longitude Altitude Speed Heading
2026-04-27 19:24 40.90744 29.31942 313 ft 0 kts 334°
2026-04-27 19:34 40.90742 29.31943 313 ft 1 kts 334°
2026-04-27 19:35 40.90727 29.31953 314 ft 3 kts 334°
2026-04-27 19:35 40.90709 29.31964 313 ft 3 kts 336°
2026-04-27 19:35 40.90690 29.31975 313 ft 3 kts 333°
2026-04-27 19:35 40.90675 29.31988 312 ft 2 kts 315°
2026-04-27 19:36 40.90667 29.31999 313 ft 3 kts 322°
2026-04-27 19:36 40.90656 29.32008 314 ft 3 kts 25°
2026-04-27 19:36 40.90648 29.31995 311 ft 3 kts 74°
2026-04-27 19:36 40.90643 29.31969 312 ft 3 kts 74°
2026-04-27 19:37 40.90638 29.31949 313 ft 1 kts 64°
2026-04-27 19:37 40.90638 29.31948 313 ft 1 kts 64°
2026-04-27 19:39 40.90641 29.31957 314 ft 3 kts 64°
2026-04-27 19:39 40.90654 29.31992 313 ft 6 kts 64°
2026-04-27 19:39 40.90676 29.32051 314 ft 8 kts 64°
2026-04-27 19:40 40.90705 29.32130 314 ft 11 kts 64°
2026-04-27 19:40 40.90735 29.32225 314 ft 11 kts 83°
2026-04-27 19:40 40.90690 29.32290 314 ft 10 kts 152°
2026-04-27 19:40 40.90626 29.32335 314 ft 10 kts 137°
2026-04-27 19:41 40.90588 29.32411 314 ft 10 kts 142°
2026-04-27 19:41 40.90527 29.32454 314 ft 10 kts 154°
2026-04-27 19:41 40.90470 29.32490 315 ft 8 kts 159°
2026-04-27 19:41 40.90423 29.32468 314 ft 7 kts 237°
2026-04-27 19:42 40.90398 29.32396 314 ft 18 kts 245°
2026-04-27 19:42 40.90240 29.31967 316 ft 84 kts 244°
2026-04-27 19:42 40.89886 29.31006 314 ft 150 kts 244°
2026-04-27 19:42 40.89353 29.29549 411 ft 191 kts 246°
2026-04-27 19:43 40.88794 29.27958 1064 ft 191 kts 246°
2026-04-27 19:43 40.88270 29.26335 1797 ft 192 kts 244°
2026-04-27 19:43 40.87755 29.24705 2512 ft 194 kts 247°
2026-04-27 19:43 40.87236 29.23020 3069 ft 202 kts 249°
2026-04-27 19:44 40.86731 29.21261 3660 ft 207 kts 250°
2026-04-27 19:44 40.86235 29.19457 4247 ft 213 kts 247°
2026-04-27 19:44 40.85359 29.17796 4551 ft 232 kts 217°
2026-04-27 19:44 40.83869 29.16772 4785 ft 255 kts 197°
2026-04-27 19:45 40.82075 29.16203 5240 ft 272 kts 186°
2026-04-27 19:45 40.80174 29.15922 6006 ft 278 kts 182°
2026-04-27 19:45 40.78242 29.15753 6908 ft 277 kts 183°
2026-04-27 19:45 40.76317 29.15594 7746 ft 278 kts 184°
2026-04-27 19:46 40.74374 29.15401 8519 ft 282 kts 185°
2026-04-27 19:46 40.72418 29.15164 9358 ft 283 kts 186°
2026-04-27 19:46 40.70446 29.14889 10150 ft 288 kts 187°
2026-04-27 19:46 40.68398 29.14579 10521 ft 306 kts 187°
2026-04-27 19:47 40.66221 29.14237 10837 ft 324 kts 188°
2026-04-27 19:47 40.63918 29.13870 11170 ft 342 kts 188°
2026-04-27 19:47 40.61517 29.13489 11698 ft 352 kts 187°
2026-04-27 19:47 40.59066 29.13104 12360 ft 357 kts 188°
2026-04-27 19:48 40.56618 29.12722 13043 ft 362 kts 188°
2026-04-27 19:48 40.54096 29.12330 13657 ft 368 kts 189°
2026-04-27 19:48 40.51537 29.11931 14289 ft 372 kts 189°
2026-04-27 19:48 40.48961 29.11532 14916 ft 375 kts 188°
2026-04-27 19:49 40.46364 29.11129 15604 ft 376 kts 188°
2026-04-27 19:49 40.43757 29.10725 16286 ft 379 kts 188°
2026-04-27 19:49 40.41130 29.10323 16929 ft 382 kts 188°
2026-04-27 19:49 40.38480 29.09913 17572 ft 385 kts 189°
2026-04-27 19:50 40.35811 29.09502 18165 ft 388 kts 188°
2026-04-27 19:50 40.33114 29.09086 18707 ft 392 kts 188°
2026-04-27 19:50 40.30393 29.08667 19225 ft 395 kts 188°
2026-04-27 19:50 40.27655 29.08245 19753 ft 398 kts 189°
2026-04-27 19:51 40.24896 29.07820 20274 ft 400 kts 189°
2026-04-27 19:51 40.22121 29.07393 20780 ft 403 kts 189°
2026-04-27 19:51 40.19325 29.06963 21286 ft 406 kts 189°
2026-04-27 19:51 40.16511 29.06530 21763 ft 409 kts 189°
2026-04-27 19:52 40.13670 29.06093 22266 ft 412 kts 189°
2026-04-27 19:52 40.11778 29.05803 22612 ft 414 kts 189°
2026-04-27 19:52 40.07933 29.05215 23295 ft 418 kts 189°
2026-04-27 19:52 40.05035 29.04771 23769 ft 421 kts 189°
2026-04-27 19:53 39.99185 29.03876 24525 ft 426 kts 189°
2026-04-27 19:53 39.96227 29.03424 24904 ft 429 kts 189°
2026-04-27 19:53 39.93257 29.02971 25297 ft 431 kts 189°
2026-04-27 19:54 39.90268 29.02517 25675 ft 433 kts 189°
2026-04-27 19:54 39.87269 29.02062 26040 ft 435 kts 189°
2026-04-27 19:54 39.84256 29.01604 26382 ft 437 kts 189°
2026-04-27 19:54 39.81227 29.01144 26731 ft 439 kts 189°
2026-04-27 19:55 39.78175 29.00680 27017 ft 443 kts 189°
2026-04-27 19:55 39.75105 29.00215 27344 ft 445 kts 189°
2026-04-27 19:55 39.72024 28.99748 27662 ft 447 kts 189°
2026-04-27 19:55 39.68929 28.99280 27963 ft 449 kts 189°
2026-04-27 19:56 39.65821 28.98810 28266 ft 451 kts 189°
2026-04-27 19:56 39.62739 28.98344 28552 ft 452 kts 189°
2026-04-27 19:56 39.59610 28.97872 28913 ft 453 kts 189°
2026-04-27 19:56 39.56485 28.97401 29311 ft 452 kts 189°
2026-04-27 19:57 39.53361 28.96932 29716 ft 451 kts 189°
2026-04-27 19:57 39.50232 28.96461 29908 ft 455 kts 189°
2026-04-27 19:57 39.47069 28.95984 30047 ft 460 kts 189°
2026-04-27 19:57 39.43873 28.95502 30108 ft 466 kts 189°
2026-04-27 19:58 39.37349 28.94518 30102 ft 476 kts 189°
2026-04-27 19:58 39.30772 28.93537 30090 ft 475 kts 189°
2026-04-27 19:59 39.24208 28.92559 30083 ft 475 kts 189°
2026-04-27 19:59 39.17637 28.91580 30091 ft 476 kts 189°
2026-04-27 20:00 39.11060 28.90600 30089 ft 476 kts 189°
2026-04-27 20:00 39.04485 28.89623 30081 ft 476 kts 189°
2026-04-27 20:01 38.97886 28.88826 30071 ft 477 kts 186°
2026-04-27 20:01 38.91262 28.88290 30067 ft 477 kts 186°
2026-04-27 20:02 38.84637 28.87749 30048 ft 477 kts 186°
2026-04-27 20:02 38.78012 28.87203 30059 ft 477 kts 186°
2026-04-27 20:03 38.72507 28.86748 30060 ft 477 kts 186°
2026-04-27 20:03 38.65879 28.86200 30045 ft 477 kts 186°
2026-04-27 20:04 38.59246 28.85652 30054 ft 478 kts 186°
2026-04-27 20:04 38.52614 28.85104 30042 ft 478 kts 186°
2026-04-27 20:05 38.45978 28.84558 30039 ft 478 kts 186°
2026-04-27 20:05 38.39332 28.84011 30042 ft 479 kts 186°
2026-04-27 20:06 38.32676 28.83465 30043 ft 479 kts 186°
2026-04-27 20:06 38.26020 28.82921 30034 ft 479 kts 186°
2026-04-27 20:07 38.22738 28.82654 29982 ft 465 kts 186°
2026-04-27 20:07 38.19556 28.82396 29677 ft 453 kts 186°
2026-04-27 20:07 38.16447 28.82143 29399 ft 441 kts 186°
2026-04-27 20:07 38.13423 28.81897 29108 ft 431 kts 186°
2026-04-27 20:08 38.10442 28.81653 28826 ft 428 kts 186°
2026-04-27 20:08 38.07474 28.81410 28561 ft 427 kts 186°
2026-04-27 20:08 38.04509 28.81167 28279 ft 426 kts 186°
2026-04-27 20:08 38.01557 28.80926 28008 ft 425 kts 186°
2026-04-27 20:09 37.98609 28.80687 27744 ft 424 kts 186°
2026-04-27 20:09 37.95672 28.80448 27483 ft 422 kts 185°
2026-04-27 20:09 37.92746 28.80211 27222 ft 421 kts 185°
2026-04-27 20:09 37.89832 28.79974 26964 ft 419 kts 185°
2026-04-27 20:10 37.86925 28.79739 26706 ft 417 kts 185°
2026-04-27 20:10 37.84035 28.79505 26460 ft 415 kts 185°
2026-04-27 20:10 37.81177 28.79275 26133 ft 408 kts 185°
2026-04-27 20:10 37.78361 28.79048 25681 ft 404 kts 185°
2026-04-27 20:11 37.75565 28.78822 25213 ft 401 kts 185°
2026-04-27 20:11 37.72790 28.78598 24753 ft 398 kts 185°
2026-04-27 20:11 37.70032 28.78375 24273 ft 396 kts 185°
2026-04-27 20:11 37.67282 28.78153 23796 ft 395 kts 185°
2026-04-27 20:12 37.64545 28.77933 23262 ft 393 kts 185°
2026-04-27 20:12 37.61826 28.77714 22772 ft 390 kts 185°
2026-04-27 20:12 37.59130 28.77498 22309 ft 386 kts 185°
2026-04-27 20:12 37.56467 28.77284 21857 ft 382 kts 185°
2026-04-27 20:13 37.53828 28.77072 21405 ft 378 kts 185°
2026-04-27 20:13 37.51212 28.76862 20940 ft 375 kts 185°
2026-04-27 20:13 37.48649 28.76657 20495 ft 372 kts 185°
2026-04-27 20:13 37.46074 28.76451 20044 ft 370 kts 185°
2026-04-27 20:14 37.43515 28.76246 19592 ft 367 kts 185°
2026-04-27 20:14 37.40969 28.76043 19148 ft 365 kts 185°
2026-04-27 20:14 37.38440 28.75840 18707 ft 363 kts 184°
2026-04-27 20:14 37.35922 28.75639 18254 ft 362 kts 184°
2026-04-27 20:15 37.33412 28.75439 17774 ft 360 kts 184°
2026-04-27 20:15 37.30925 28.75241 17341 ft 357 kts 184°
2026-04-27 20:15 37.28457 28.75044 16902 ft 354 kts 184°
2026-04-27 20:15 37.26009 28.74849 16470 ft 351 kts 184°
2026-04-27 20:16 37.23574 28.74656 16039 ft 349 kts 184°
2026-04-27 20:16 37.21165 28.74464 15603 ft 346 kts 184°
2026-04-27 20:16 37.18765 28.74273 15174 ft 344 kts 184°
2026-04-27 20:16 37.16381 28.74083 14749 ft 343 kts 184°
2026-04-27 20:17 37.14042 28.73898 14617 ft 329 kts 184°
2026-04-27 20:17 37.11805 28.73721 14514 ft 316 kts 184°
2026-04-27 20:17 37.09634 28.73549 14225 ft 312 kts 184°
2026-04-27 20:17 37.07460 28.73377 13758 ft 314 kts 184°
2026-04-27 20:18 37.05282 28.73211 13294 ft 313 kts 184°
2026-04-27 20:18 37.03116 28.73050 12861 ft 310 kts 184°
2026-04-27 20:18 37.00970 28.72893 12469 ft 307 kts 184°
2026-04-27 20:18 36.98851 28.72738 12086 ft 304 kts 184°
2026-04-27 20:19 36.96750 28.72583 11707 ft 301 kts 184°
2026-04-27 20:19 36.94666 28.72431 11329 ft 299 kts 184°
2026-04-27 20:19 36.92597 28.72279 10958 ft 297 kts 184°
2026-04-27 20:19 36.90542 28.72111 10557 ft 295 kts 187°
2026-04-27 20:20 36.88529 28.71663 10184 ft 292 kts 194°
2026-04-27 20:20 36.86563 28.71069 9831 ft 289 kts 194°
2026-04-27 20:20 36.84621 28.70456 9448 ft 287 kts 195°
2026-04-27 20:20 36.82724 28.69856 9097 ft 284 kts 194°
2026-04-27 20:21 36.80795 28.69248 8724 ft 281 kts 194°
2026-04-27 20:21 36.78933 28.68664 8395 ft 278 kts 194°
2026-04-27 20:21 36.77064 28.68079 8052 ft 276 kts 194°
2026-04-27 20:21 36.75212 28.67501 7711 ft 273 kts 194°
2026-04-27 20:22 36.73374 28.66927 7375 ft 271 kts 194°
2026-04-27 20:22 36.71576 28.66367 7261 ft 266 kts 194°
2026-04-27 20:22 36.69770 28.65804 7160 ft 267 kts 194°
2026-04-27 20:22 36.67998 28.65226 6867 ft 260 kts 195°
2026-04-27 20:23 36.66268 28.64644 6483 ft 255 kts 195°
2026-04-27 20:23 36.64573 28.64070 6080 ft 250 kts 195°
2026-04-27 20:23 36.62911 28.63508 5718 ft 245 kts 195°
2026-04-27 20:23 36.61275 28.62954 5358 ft 243 kts 195°
2026-04-27 20:24 36.59650 28.62405 5025 ft 242 kts 195°
2026-04-27 20:24 36.58032 28.61858 4681 ft 240 kts 195°
2026-04-27 20:24 36.56416 28.61342 4304 ft 239 kts 190°
2026-04-27 20:24 36.54773 28.61344 3954 ft 237 kts 165°
2026-04-27 20:25 36.53349 28.62300 3608 ft 234 kts 135°
2026-04-27 20:25 36.52497 28.63984 3271 ft 231 kts 110°
2026-04-27 20:25 36.52023 28.65889 2930 ft 230 kts 105°
2026-04-27 20:25 36.51621 28.67810 2790 ft 230 kts 105°
2026-04-27 20:26 36.51274 28.69742 2752 ft 226 kts 92°
2026-04-27 20:26 36.51729 28.71479 2774 ft 210 kts 51°
2026-04-27 20:26 36.52820 28.72686 2769 ft 212 kts 34°
2026-04-27 20:26 36.54141 28.73435 2758 ft 203 kts 16°
2026-04-27 20:27 36.55472 28.73857 2774 ft 194 kts 14°
2026-04-27 20:27 36.56774 28.74284 2703 ft 193 kts 15°
2026-04-27 20:27 36.58067 28.74728 2442 ft 193 kts 15°
2026-04-27 20:27 36.59351 28.75169 2168 ft 188 kts 15°
2026-04-27 20:28 36.60562 28.75580 1918 ft 173 kts 15°
2026-04-27 20:28 36.61672 28.75959 1685 ft 158 kts 16°
2026-04-27 20:28 36.62698 28.76309 1491 ft 150 kts 16°
2026-04-27 20:28 36.63366 28.76537 1361 ft 150 kts 15°
2026-04-27 20:29 36.64712 28.76996 1100 ft 150 kts 15°
2026-04-27 20:29 36.65718 28.77339 913 ft 150 kts 15°
2026-04-27 20:29 36.66721 28.77681 720 ft 149 kts 16°
2026-04-27 20:29 36.67721 28.78023 527 ft 148 kts 16°
2026-04-27 20:30 36.68712 28.78361 316 ft 147 kts 16°
2026-04-27 20:30 36.69692 28.78697 121 ft 146 kts 17°
2026-04-27 20:30 36.70639 28.79019 32 ft 135 kts 16°
2026-04-27 20:30 36.71463 28.79303 16 ft 111 kts 15°
2026-04-27 20:31 36.72038 28.79499 15 ft 60 kts 15°
2026-04-27 20:31 36.72301 28.79587 15 ft 31 kts 14°
2026-04-27 20:31 36.72505 28.79657 15 ft 27 kts 15°
2026-04-27 20:31 36.72627 28.79605 15 ft 17 kts 298°
2026-04-27 20:32 36.72625 28.79490 15 ft 13 kts 221°
2026-04-27 20:32 36.72538 28.79455 15 ft 14 kts 195°
2026-04-27 20:32 36.72440 28.79422 15 ft 15 kts 195°
2026-04-27 20:32 36.72331 28.79385 15 ft 17 kts 195°
2026-04-27 20:33 36.72289 28.79287 15 ft 15 kts 285°
2026-04-27 20:33 36.72304 28.79167 15 ft 12 kts 250°
2026-04-27 20:33 36.72228 28.79128 15 ft 13 kts 195°
2026-04-27 20:33 36.72137 28.79097 15 ft 14 kts 195°
2026-04-27 20:34 36.72066 28.79057 17 ft 8 kts 248°
2026-04-27 20:34 36.72077 28.78993 15 ft 0 kts 285°
2026-04-27 20:34 36.72077 28.78992 15 ft 0 kts 285°